Weather History for Rotterdam, Netherlands

Change the Weather History Date:

Thursday, April 3, 2014

  Actual Average Record
Temperature  
Mean Temperature 58 °F -  
Max Temperature 70 °F 56 °F 70 °F (2014)
Min Temperature 45 °F 41 °F 30 °F (2013)
Degree Days  
Heating Degree Days 8    
Growing Degree Days 8 (Base 50)    
Moisture  
Dew Point 49 °F    
Average Humidity 74    
Maximum Humidity 100    
Minimum Humidity 35    
Precipitation  
Precipitation 0.00 in - - ()
Sea Level Pressure  
Sea Level Pressure 29.61 in    
Wind  
Wind Speed 5 mph ()    
Max Wind Speed 10 mph    
Max Gust Speed -    
Visibility 4.9 miles    
Events      
Averages and records for this station are not official NWS values.
T = Trace of Precipitation, MM = Missing Value Source: Averaged Metar Reports

Daily Weather History Graph

Daily Weather History Graph

Search for Another Location

Airport:

Trip Planner

Search our weather history database for the weather conditions in past years. The results will help you decide how hot, cold, wet, or windy it might be!

Date:

Astronomy

Apr. 03, 2014 Rise Set
Actual Time 7:12 AM CEST 8:19 PM CEST
Civil Twilight 6:38 AM CEST 8:53 PM CEST
Nautical Twilight 5:56 AM CEST 9:35 PM CEST
Astronomical Twilight 5:12 AM CEST 10:20 PM CEST
Moon 9:06 AM CEST (4/3) No Moon Set
Length of Visible Light 14h 15m
Length of Day
13h 06m
Waxing Crescent, 15% of the Moon is Illuminated
Apr 3
Waxing Crescent
Apr 7
First Quarter
Apr 15
Full
Apr 22
Last Quarter
Apr 29
New

Hourly Weather History & Observations

Time (CEST) Temp. Windchill Dew Point Humidity Pressure Visibility Wind Dir Wind Speed Gust Speed Precip Events Conditions
12:00 AM 53 °F - 51 °F 88% 29.65 in 2 mi NE 2.2 mph - -   Mist
12:25 AM 53.6 °F - 50.0 °F 88% 29.62 in - NNE 3.5 mph - N/A   Mist
12:55 AM 50.0 °F - 48.2 °F 94% 29.62 in 1.7 mi NE 3.5 mph - N/A   Mist
1:00 AM 49 °F - 48 °F 93% 29.65 in 2 mi NE 4.5 mph - -   Mist
1:25 AM 50.0 °F - 50.0 °F 100% 29.62 in 1.6 mi NNE 3.5 mph - N/A   Mist
1:55 AM 51.8 °F - 50.0 °F 94% 29.62 in 1.5 mi NE 4.6 mph - N/A   Mist
2:00 AM 51 °F - 49 °F 92% 29.64 in 2 mi NE 4.5 mph - -   Mist
2:25 AM 50.0 °F - 50.0 °F 100% 29.62 in 1.5 mi NE 4.6 mph - N/A   Mist
2:55 AM 50.0 °F - 48.2 °F 94% 29.62 in 1.6 mi NE 4.6 mph - N/A   Mist
3:00 AM 50 °F - 48 °F 92% 29.62 in 2 mi NE 6.7 mph - -   Mist
3:25 AM 50.0 °F - 48.2 °F 94% 29.62 in 1.6 mi NE 3.5 mph - N/A   Mist
3:55 AM 50.0 °F - 48.2 °F 94% 29.62 in 1.9 mi NE 4.6 mph - N/A   Mist
4:00 AM 51 °F - 49 °F 88% 29.62 in 2 mi NE 4.5 mph - -   Mist
4:25 AM 50.0 °F - 48.2 °F 94% 29.59 in - NE 4.6 mph - N/A   Mist
4:55 AM 48.2 °F - 46.4 °F 93% 29.59 in 1.9 mi NE 3.5 mph - N/A   Mist
5:00 AM 48 °F - 47 °F 96% 29.62 in 2 mi ENE 4.5 mph - -   Mist
5:25 AM 46.4 °F 42.9 °F 46.4 °F 100% 29.59 in 1.7 mi ENE 6.9 mph - N/A   Mist
5:55 AM 48.2 °F - 46.4 °F 93% 29.59 in 1.6 mi NE 5.8 mph - N/A   Mist
6:00 AM 46 °F - 45 °F 95% 29.60 in 1 mi ENE 8.9 mph - -   Mist
6:25 AM 48.2 °F - 46.4 °F 93% 29.59 in 1.4 mi NE 4.6 mph - N/A   Mist
6:55 AM 46.4 °F 42.4 °F 44.6 °F 93% 29.59 in 1.2 mi ENE 8.1 mph - N/A   Mist
7:00 AM 47 °F - 46 °F 95% 29.60 in 1 mi NE 6.7 mph - -   Mist
7:25 AM 48.2 °F - 46.4 °F 93% 29.59 in 1.1 mi NE 4.6 mph - N/A   Mist
7:55 AM 50.0 °F - 48.2 °F 94% 29.59 in 1.1 mi NE 4.6 mph - N/A   Mist
8:00 AM 49 °F - 48 °F 93% 29.60 in 1 mi NE 6.7 mph - -   Mist
8:25 AM 50.0 °F - 48.2 °F 94% 29.59 in 1.3 mi NE 5.8 mph - N/A   Mist
8:55 AM 50.0 °F - 48.2 °F 94% 29.59 in 1.4 mi East 5.8 mph - N/A   Mist
9:00 AM 51 °F - 48 °F 87% 29.61 in 2 mi ESE 6.7 mph - -   Mist
9:25 AM 53.6 °F - 48.2 °F 82% 29.59 in 1.7 mi ESE 6.9 mph - N/A   Mist
9:55 AM 53.6 °F - 50.0 °F 88% 29.59 in - ENE 5.8 mph - N/A   Mist
10:00 AM 55 °F - 50 °F 79% 29.61 in 2 mi ENE 6.7 mph - -   Mist
10:25 AM 55.4 °F - 50.0 °F 82% 29.59 in 2.2 mi NE 6.9 mph - N/A   Mist
10:55 AM 57.2 °F - 51.8 °F 82% 29.59 in - ENE 6.9 mph - N/A   Mist
11:00 AM 58 °F - 52 °F 73% 29.60 in 3 mi ENE 8.9 mph - -   Mist
11:25 AM 60.8 °F - 53.6 °F 77% 29.59 in 3.1 mi ENE 8.1 mph - N/A   Haze
11:55 AM 64.4 °F - 51.8 °F 64% 29.59 in 3.7 mi East 8.1 mph - N/A   Unknown
12:00 PM 64 °F - 53 °F 59% 29.59 in 4 mi East 8.9 mph - -   Light Haze
12:25 PM 64.4 °F - 53.6 °F 68% 29.56 in 4.3 mi ESE 9.2 mph - N/A   Unknown
12:55 PM 66.2 °F - 53.6 °F 64% 29.56 in 3.7 mi SE 5.8 mph - N/A   Unknown
1:00 PM 66 °F - 52 °F 51% 29.59 in 7 mi SE 6.7 mph - -   Scattered Clouds
1:25 PM 66.2 °F - 51.8 °F 60% 29.56 in 6.2 mi SE 4.6 mph - N/A   Unknown
1:55 PM 68.0 °F - 51.8 °F 56% 29.56 in 6.2 mi East 5.8 mph - N/A   Unknown
2:00 PM 68 °F - 52 °F 46% 29.59 in 6 mi SSE 6.7 mph - -   Partly Cloudy
2:25 PM 69.8 °F - 50.0 °F 49% 29.56 in 6.2 mi ESE 6.9 mph - N/A   Unknown
2:55 PM 69.8 °F - 50.0 °F 49% 29.59 in 6.2 mi South 8.1 mph - N/A   Unknown
3:00 PM 69 °F - 47 °F 35% 29.60 in 11 mi South 6.7 mph - -   Overcast
3:25 PM 69.8 °F - 48.2 °F 46% 29.59 in 6.2 mi South 6.9 mph - N/A   Unknown
3:55 PM 69.8 °F - 44.6 °F 40% 29.59 in 6.2 mi South 5.8 mph - N/A   Unknown
4:00 PM 68 °F - 49 °F 40% 29.60 in 14 mi SSE 6.7 mph - -  
4:25 PM 68.0 °F - 50.0 °F 52% 29.59 in 6.2 mi South 9.2 mph - N/A   Unknown
4:55 PM 68.0 °F - 48.2 °F 49% 29.59 in 6.2 mi SSW 6.9 mph - N/A   Unknown
5:00 PM 68 °F - 49 °F 40% 29.60 in 13 mi South 8.9 mph - -   Partly Cloudy
5:25 PM 68.0 °F - 48.2 °F 49% 29.59 in 6.2 mi South 6.9 mph - N/A   Unknown
5:55 PM 66.2 °F - 50.0 °F 56% 29.59 in 6.2 mi SW 6.9 mph - N/A   Unknown
6:00 PM 65 °F - 49 °F 45% 29.60 in 16 mi SSW 8.9 mph - -   Scattered Clouds
6:25 PM 66.2 °F - 46.4 °F 49% 29.59 in 6.2 mi South 10.4 mph - N/A   Unknown
6:55 PM 64.4 °F - 48.2 °F 56% 29.59 in 6.2 mi South 10.4 mph - N/A   Unknown
7:00 PM 65 °F - 47 °F 41% 29.62 in 16 mi SSW 8.9 mph - -   Overcast
7:25 PM 64.4 °F - 50.0 °F 59% 29.59 in 6.2 mi South 9.2 mph - N/A   Unknown
7:55 PM 62.6 °F - 50.0 °F 63% 29.62 in 6.2 mi SSW 8.1 mph - N/A   Unknown
8:00 PM 63 °F - 49 °F 50% 29.63 in 14 mi SSW 6.7 mph - -   Partly Cloudy
8:25 PM 60.8 °F - 50.0 °F 68% 29.62 in 6.2 mi SW 4.6 mph - N/A   Unknown
8:55 PM 60.8 °F - 50.0 °F 68% 29.62 in 6.2 mi West 2.3 mph - N/A   Unknown
9:00 PM 60 °F - 50 °F 62% 29.65 in 6 mi West 2.2 mph - -   Overcast
9:25 PM 59.0 °F - 50.0 °F 72% 29.62 in 6.2 mi North 3.5 mph - N/A   Unknown
9:55 PM 59.0 °F - 51.8 °F 77% 29.62 in 6.2 mi ESE 2.3 mph - N/A   Unknown
10:00 PM 58 °F - 50 °F 67% 29.65 in 13 mi East 2.2 mph - -   Overcast
10:25 PM 57.2 °F - 51.8 °F 82% 29.65 in 6.2 mi Calm Calm - N/A   Unknown
10:55 PM 57.2 °F - 51.8 °F 82% 29.65 in 6.2 mi Variable 1.2 mph - N/A   Unknown
11:00 PM 56 °F - 52 °F 81% 29.66 in 12 mi Calm Calm - -   Scattered Clouds
11:25 PM 57.2 °F - 50.0 °F 77% 29.65 in 6.2 mi ENE 1.2 mph - N/A   Unknown
11:55 PM 55.4 °F - 51.8 °F 88% 29.65 in 6.2 mi Calm Calm - N/A   Unknown